Location: Unspecified
(0.0000°N, 0.0000°E)
Time: 09:09:10
(UTC+00:00)

Explorer 11/Cluster Stage 4 - All Passes

Search period start: 30 May 2024 00:00
Search period end: 09 June 2024 00:00
Orbit: 465 x 1218 km, 28.8° (Epoch: 29 May)

Date Brightness Start Highest point End Pass type
(mag) Time Alt. Az. Time Alt. Az. Time Alt. Az.
30 May - 01:31:58 10° SSW 01:35:11 22° SSE 01:38:08 10° E night (unlit)
30 May - 03:19:25 10° WSW 03:22:56 42° NNW 03:26:22 10° NE visible
30 May - 12:24:55 10° NNW 12:30:18 24° NNE 12:36:15 10° E daylight
30 May - 14:11:40 10° NW 14:19:08 77° NNE 14:27:13 10° ESE daylight
30 May - 16:01:03 10° W 16:08:11 36° SSW 16:15:19 10° SE daylight
30 May - 17:54:49 10° SW 17:57:44 12° SSW 18:00:34 10° S daylight
31 May - 01:14:10 10° SSW 01:17:50 26° SSE 01:21:05 10° E night (unlit)
31 May - 03:02:03 10° W 03:05:34 35° NNW 03:08:54 10° NE visible
31 May - 12:07:17 10° NNW 12:12:37 25° NNE 12:18:38 10° E daylight
31 May - 13:54:04 10° WNW 14:01:21 84° NNE 14:09:25 10° ESE daylight
31 May - 15:43:31 10° W 15:50:26 33° SSW 15:57:28 10° SSE daylight
31 May - 17:37:39 10° SW 17:40:08 12° SSW 17:42:33 10° S daylight
01 Jun - 00:56:20 10° SW 01:00:27 32° SSE 01:03:58 10° E night (unlit)
01 Jun - 02:44:40 10° W 02:48:10 30° NNW 02:51:25 10° NNE night (unlit)
01 Jun - 11:49:41 10° NNW 11:54:57 27° NNE 12:00:58 10° E daylight
01 Jun - 13:36:30 10° WNW 13:43:33 90° SW 13:51:35 10° ESE daylight
01 Jun - 15:26:04 10° W 15:32:41 31° SSW 15:39:33 10° SSE daylight
01 Jun - 17:20:40 10° SSW 17:22:32 11° SSW 17:24:22 10° S daylight
01 Jun - 22:53:47 10° SSE 22:54:16 10° SSE 22:54:45 10° SSE night (unlit)
02 Jun - 00:38:31 10° SW 00:43:02 39° SSE 00:46:50 10° E night (unlit)
02 Jun - 02:27:17 10° W 02:30:46 27° NNW 02:33:56 10° NNE night (unlit)
02 Jun - 11:32:07 10° NNW 11:37:16 28° NNE 11:43:17 10° E daylight
02 Jun - 13:18:59 10° WNW 13:25:48 83° SSW 13:33:43 10° ESE daylight
02 Jun - 15:08:40 10° W 15:14:57 28° SSW 15:21:36 10° SSE daylight
02 Jun - 17:04:15 10° SSW 17:04:56 10° SSW 17:05:36 10° SSW daylight
02 Jun - 22:34:27 10° S 22:36:50 13° SSE 22:39:03 10° SE night (unlit)
03 Jun - 00:20:40 10° SW 00:25:36 47° SSE 00:29:39 10° ENE night (unlit)
03 Jun - 02:09:51 10° W 02:13:20 24° NNW 02:16:28 10° NNE night (unlit)
03 Jun - 11:14:35 10° NNW 11:19:37 30° NNE 11:25:35 10° E daylight
03 Jun - 13:01:31 10° WNW 13:08:03 75° SSW 13:15:48 10° SE daylight
03 Jun - 14:51:19 10° WSW 14:57:14 25° SSW 15:03:35 10° SSE daylight
03 Jun - 22:15:57 10° SSW 22:19:23 15° SSE 22:22:28 10° SE night (unlit)
04 Jun - 00:02:49 10° SW 00:08:09 56° SSE 00:12:26 10° ENE night (unlit)
04 Jun - 01:52:24 10° W 01:55:54 22° NNW 01:58:59 10° NNE night (unlit)
04 Jun - 10:57:05 10° NNW 11:01:59 32° NNE 11:07:51 10° E daylight
04 Jun - 12:44:06 10° WNW 12:50:20 68° SSW 12:57:53 10° SE daylight
04 Jun - 14:34:03 10° WSW 14:39:33 23° SSW 14:45:32 10° SSE daylight
04 Jun - 21:57:39 10° SSW 22:01:54 18° SSE 22:05:38 10° ESE night (unlit)
04 Jun - 23:44:58 10° SW 23:50:40 66° SSE 23:55:12 10° ENE night (unlit)
05 Jun - 01:34:57 10° W 01:38:26 20° NNW 01:41:30 10° NNE night (unlit)
05 Jun - 10:39:36 10° NNW 10:44:22 34° NNE 10:50:08 10° E daylight
05 Jun - 12:26:42 10° WNW 12:32:39 61° SSW 12:39:54 10° SE daylight
05 Jun - 14:16:51 10° WSW 14:21:54 21° SSW 14:27:24 10° SSE daylight
05 Jun - 21:39:26 10° SSW 21:44:23 21° SSE 21:48:40 10° ESE night (unlit)
05 Jun - 23:27:05 10° SW 23:33:08 76° SSE 23:37:55 10° ENE night (unlit)
06 Jun - 01:17:28 10° WNW 01:20:56 19° NNW 01:24:00 10° NNE night (unlit)
06 Jun - 10:22:09 10° NNW 10:26:46 36° NNE 10:32:23 10° E daylight
06 Jun - 12:09:22 10° WNW 12:15:00 54° SSW 12:21:56 10° SE daylight
06 Jun - 13:59:45 10° WSW 14:04:16 18° SSW 14:09:13 10° SSE daylight
06 Jun - 21:21:16 10° SSW 21:26:49 24° SSE 21:31:36 10° ESE night (unlit)
06 Jun - 23:09:13 10° WSW 23:15:35 86° SSE 23:20:36 10° ENE night (unlit)
07 Jun - 00:59:57 10° WNW 01:03:26 18° NNW 01:06:29 10° N night (unlit)
07 Jun - 10:04:43 10° NW 10:09:10 39° NNE 10:14:39 10° E daylight
07 Jun - 11:52:04 10° W 11:57:23 47° SSW 12:03:56 10° SE daylight
07 Jun - 13:42:46 10° SW 13:46:40 16° SSW 13:50:56 10° SSE daylight
07 Jun - 19:17:59 10° S 19:19:22 10° SSE 19:20:44 10° SSE visible
07 Jun - 21:03:08 10° SSW 21:09:12 28° SSE 21:14:28 10° E visible
07 Jun - 22:51:20 10° WSW 22:57:59 84° NNW 23:03:15 10° ENE night (unlit)
08 Jun - 00:42:26 10° WNW 00:45:54 17° NNW 00:48:59 10° N night (unlit)
08 Jun - 09:47:18 10° NW 09:51:37 42° NNE 09:56:55 10° ESE daylight
08 Jun - 11:34:50 10° W 11:39:48 40° SSW 11:45:55 10° SE daylight
08 Jun - 13:25:55 10° SW 13:29:06 14° SSW 13:32:32 10° S daylight
08 Jun - 18:59:05 10° S 19:01:46 12° SSE 19:04:24 10° SE visible
08 Jun - 20:45:01 10° SW 20:51:34 32° SSE 20:57:14 10° E visible
08 Jun - 22:33:26 10° WSW 22:40:20 76° NNW 22:45:51 10° NE night (unlit)
